This is the latest recevied weather packets stored in our database for station/object KB1FFS. If no packets are shown the sender has not sent any weather packets the latest 10 day(s).
| Time | Temp. | Humidity | Pressure | Rain* | Wind** | Luminosity | Snow |
|---|---|---|---|---|---|---|---|
| 1787606750 | 43.89° C | 22% | 1012.2 hPa | 0 mm | - | 561 W/m² | - |
| 1787606444 | 43.89° C | 21% | 1012.3 hPa | 0 mm | - | 575 W/m² | - |
| 1787606143 | 43.89° C | 22% | 1012.3 hPa | 0 mm | - | 581 W/m² | - |
| 1787605838 | 43.89° C | 21% | 1012.5 hPa | 0 mm | - | 596 W/m² | - |
| 1787605532 | 43.89° C | 22% | 1012.3 hPa | 0 mm | - | 606 W/m² | - |
| 1787605228 | 43.89° C | 21% | 1012.6 hPa | 0 mm | - | 611 W/m² | - |
| 1787604927 | 43.89° C | 22% | 1012.6 hPa | 0 mm | - | 627 W/m² | - |
| 1787604627 | 43.89° C | 22% | 1012.7 hPa | 0 mm | - | 645 W/m² | - |
| 1787604327 | 43.89° C | 22% | 1012.7 hPa | 0 mm | - | 646 W/m² | - |
| 1787604022 | 43.89° C | 22% | 1012.9 hPa | 0 mm | - | 682 W/m² | - |
| 1787603722 | 43.89° C | 22% | 1013.1 hPa | 0 mm | - | 682 W/m² | - |
| 1787603417 | 43.89° C | 22% | 1013.2 hPa | 0 mm | - | 682 W/m² | - |
| 1787603113 | 43.89° C | 23% | 1013.2 hPa | 0 mm | - | 692 W/m² | - |
| 1787602809 | 43.89° C | 23% | 1013.2 hPa | 0 mm | - | 700 W/m² | - |
| 1787602509 | 43.33° C | 23% | 1013.4 hPa | 0 mm | - | 715 W/m² | - |
| 1787602205 | 43.33° C | 23% | 1013.4 hPa | 0 mm | - | 714 W/m² | - |
| 1787601903 | 43.33° C | 24% | 1013.6 hPa | 0 mm | - | 731 W/m² | - |
| 1787601598 | 43.33° C | 23% | 1013.5 hPa | 0 mm | - | 742 W/m² | - |
| 1787601294 | 43.33° C | 24% | 1013.5 hPa | 0 mm | - | 789 W/m² | - |
| 1787600992 | 42.78° C | 24% | 1013.7 hPa | 0 mm | - | 786 W/m² | - |
| 1787600693 | 42.22° C | 25% | 1013.7 hPa | 0 mm | - | 822 W/m² | - |
| 1787600388 | 42.22° C | 25% | 1013.9 hPa | 0 mm | - | 924 W/m² | - |
| 1787600084 | 42.22° C | 24% | 1013.9 hPa | 0 mm | - | 393 W/m² | - |
| 1787599781 | 42.78° C | 24% | 1014 hPa | 0 mm | - | 523 W/m² | - |
| 1787599477 | 42.22° C | 25% | 1014 hPa | 0 mm | - | 954 W/m² | - |
* Rain latest hour (hover to see other rain measurements)
** Current wind speed in m/s (hover to see current wind gust speed)